This is the latest recevied weather packets stored in our database for station/object N3WXO-1. If no packets are shown the sender has not sent any weather packets the latest 1 day(s).
| Time | Temp. | Humidity | Pressure | Rain* | Wind** | Luminosity | Snow |
|---|---|---|---|---|---|---|---|
| 1778019028 | 26.11° C | 37% | 1007.1 hPa | 0 mm | 2.68 m/s, 214° | 44 W/m² | - |
| 1778018720 | 26.11° C | 38% | 1007.1 hPa | 0 mm | 2.68 m/s, 240° | 58 W/m² | - |
| 1778018429 | 26.11° C | 37% | 1007 hPa | 0 mm | 4.02 m/s, 215° | 72 W/m² | - |
| 1778018126 | 26.11° C | 38% | 1006.9 hPa | 0 mm | 2.68 m/s, 255° | 77 W/m² | - |
| 1778017830 | 26.11° C | 39% | 1007 hPa | 0 mm | 2.68 m/s, 226° | 58 W/m² | - |
| 1778017522 | 26.11° C | 41% | 1007 hPa | 0 mm | 0.45 m/s, 231° | 53 W/m² | - |
| 1778017232 | 26.11° C | 40% | 1007 hPa | 0 mm | 0.45 m/s, 211° | 46 W/m² | - |
| 1778016628 | 26.11° C | 42% | 1007.1 hPa | 0 mm | 0.89 m/s, 220° | 62 W/m² | - |
| 1778016321 | 26.11° C | 41% | 1007.2 hPa | 0 mm | 0.45 m/s, 201° | 72 W/m² | - |
| 1778016029 | 26.11° C | 42% | 1007.1 hPa | 0 mm | 0.45 m/s, 226° | 70 W/m² | - |
| 1778015720 | 26.67° C | 41% | 1007 hPa | 0 mm | 1.79 m/s, 76° | 74 W/m² | - |
| 1778015432 | 26.67° C | 39% | 1007.1 hPa | 0 mm | 4.47 m/s, 188° | 67 W/m² | - |
| 1778015116 | 27.22° C | 40% | 1007 hPa | 0 mm | 1.34 m/s, 230° | 91 W/m² | - |
| 1778014827 | 27.78° C | 39% | 1007 hPa | 0 mm | 1.79 m/s, 230° | 142 W/m² | - |
| 1778014516 | 27.78° C | 39% | 1007 hPa | 0 mm | 1.79 m/s, 220° | 204 W/m² | - |
| 1778014227 | 27.78° C | 38% | 1007 hPa | 0 mm | 3.13 m/s, 223° | 350 W/m² | - |
| 1778013921 | 28.33° C | 39% | 1006.9 hPa | 0 mm | 2.24 m/s, 159° | 234 W/m² | - |
| 1778013630 | 28.33° C | 39% | 1007.1 hPa | 0 mm | 2.24 m/s, 210° | 292 W/m² | - |
| 1778013314 | 28.33° C | 39% | 1007 hPa | 0 mm | 4.02 m/s, 198° | 348 W/m² | - |
| 1778013027 | 28.33° C | 40% | 1007.1 hPa | 0 mm | 2.24 m/s, 237° | 439 W/m² | - |
| 1778012741 | 28.33° C | 39% | 1007 hPa | 0 mm | 3.13 m/s, 173° | 381 W/m² | - |
| 1778012421 | 28.33° C | 40% | 1007 hPa | 0 mm | 0.89 m/s, 227° | 373 W/m² | - |
| 1778012115 | 28.33° C | 39% | 1006.9 hPa | 0 mm | 4.02 m/s, 204° | 394 W/m² | - |
| 1778011824 | 28.33° C | 39% | 1006.9 hPa | 0 mm | 0.89 m/s, 149° | 364 W/m² | - |
| 1778011526 | 27.78° C | 38% | 1007 hPa | 0 mm | 3.13 m/s, 193° | 204 W/m² | - |
* Rain latest hour (hover to see other rain measurements)
** Current wind speed in m/s (hover to see current wind gust speed)